Weather History for Montague, CA

Change the Weather History Date:

Sunday, April 21, 2013

  Actual Average Record
Temperature  
Mean Temperature 51 °F 48 °F  
Max Temperature 70 °F 63 °F 90 °F (2009)
Min Temperature 32 °F 34 °F 18 °F (2008)
Degree Days  
Heating Degree Days 14 17  
Month to date heating degree days 363 406  
Since 1 July heating degree days 4722 4965  
Cooling Degree Days 0 0  
Month to date cooling degree days 0 0  
Year to date cooling degree days 0 0  
Growing Degree Days 2 (Base 50)    
Moisture  
Dew Point 34 °F    
Average Humidity 55    
Maximum Humidity 82    
Minimum Humidity 27    
Precipitation  
Precipitation 0.00 in 0.06 in 0.53 in (1980)
Month to date precipitation 0.74 0.96  
Year to date precipitation 2.56 7.48  
Sea Level Pressure  
Sea Level Pressure 30.23 in    
Wind  
Wind Speed 7 mph (NNE)    
Max Wind Speed 25 mph    
Max Gust Speed 30 mph    
Visibility 10 miles    
Events      
T = Trace of Precipitation, MM = Missing Value Source: NWS Daily Summary

Daily Weather History Graph

Daily Weather History Graph

Search for Another Location

Airport:

Trip Planner

Search our weather history database for the weather conditions in past years. The results will help you decide how hot, cold, wet, or windy it might be!

Date:

Astronomy

Apr. 21, 2013 Rise Set
Actual Time 6:19 AM PDT 7:57 PM PDT
Civil Twilight 5:50 AM PDT 8:27 PM PDT
Nautical Twilight 5:15 AM PDT 9:02 PM PDT
Astronomical Twilight 4:37 AM PDT 9:41 PM PDT
Moon 3:45 PM PDT (4/21) 3:48 AM PDT (4/21)
Length of Visible Light 14h 36m
Length of Day
13h 37m
Waxing Gibbous, 81% of the Moon is Illuminated
Apr 21
Waxing Gibbous
Apr 25
Full
May 2
Last Quarter
May 9
New
May 17
First Quarter

Hourly Weather History & Observations

Time (PDT) Temp. Windchill Dew Point Humidity Pressure Visibility Wind Dir Wind Speed Gust Speed Precip Events Conditions
12:53 AM 43.0 °F 39.5 °F 32.0 °F 65% 30.25 in 10.0 mi SE 5.8 mph - N/A   Clear
1:53 AM 37.9 °F - 28.9 °F 70% 30.24 in 10.0 mi Calm Calm - N/A   Clear
2:53 AM 37.9 °F - 30.9 °F 76% 30.23 in 10.0 mi Calm Calm - N/A   Clear
3:53 AM 37.0 °F - 30.9 °F 79% 30.23 in 10.0 mi Calm Calm - N/A   Clear
4:53 AM 34.0 °F 31.0 °F 27.0 °F 75% 30.25 in 10.0 mi ENE 3.5 mph - N/A   Clear
5:53 AM 33.1 °F - 28.0 °F 82% 30.25 in 10.0 mi Calm Calm - N/A   Clear
6:53 AM 33.1 °F - 28.0 °F 82% 30.27 in 10.0 mi Calm Calm - N/A   Clear
7:53 AM 42.1 °F 40.2 °F 33.1 °F 70% 30.28 in 10.0 mi ENE 3.5 mph - N/A   Clear
8:53 AM 48.0 °F - 34.0 °F 58% 30.29 in 10.0 mi Calm Calm - N/A   Clear
9:53 AM 51.1 °F - 36.0 °F 56% 30.27 in 10.0 mi Calm Calm - N/A   Clear
10:53 AM 57.0 °F - 36.0 °F 45% 30.26 in 10.0 mi Calm Calm - N/A   Clear
11:53 AM 62.1 °F - 34.0 °F 35% 30.24 in 10.0 mi WNW 3.5 mph - N/A   Clear
12:53 PM 64.9 °F - 34.0 °F 32% 30.22 in 10.0 mi Variable 4.6 mph - N/A   Clear
1:53 PM 68.0 °F - 34.0 °F 28% 30.21 in 10.0 mi NE 12.7 mph 26.5 mph N/A   Clear
2:53 PM 70.0 °F - 37.0 °F 30% 30.19 in 10.0 mi North 12.7 mph - N/A   Clear
3:53 PM 68.0 °F - 37.0 °F 32% 30.18 in 10.0 mi NNE 19.6 mph 25.3 mph N/A   Clear
4:53 PM 68.0 °F - 37.9 °F 33% 30.19 in 10.0 mi North 21.9 mph 28.8 mph N/A   Clear
5:53 PM 66.0 °F - 37.0 °F 34% 30.19 in 10.0 mi North 24.2 mph 31.1 mph N/A   Clear
6:53 PM 63.0 °F - 37.9 °F 40% 30.20 in 10.0 mi North 19.6 mph 27.6 mph N/A   Clear
7:53 PM 57.9 °F - 39.0 °F 49% 30.19 in 10.0 mi North 13.8 mph - N/A   Clear
8:53 PM 55.9 °F - 39.9 °F 55% 30.20 in 10.0 mi NNE 10.4 mph 16.1 mph N/A   Clear
9:53 PM 50.0 °F - 37.9 °F 63% 30.23 in 10.0 mi NE 4.6 mph - N/A   Clear
10:53 PM 51.1 °F - 37.9 °F 61% 30.22 in 10.0 mi ENE 3.5 mph - N/A   Clear
11:53 PM 48.0 °F - 37.0 °F 66% 30.22 in 10.0 mi ENE 10.4 mph 25.3 mph N/A   Clear